Regional Weather Roundup
Issued by NWS Raleigh/Durham, NC

Home | Current Version | Previous Version | Text Only | Print | Product List | Glossary On
Versions: 1 2 3 4 5 6 7 8 9 10 11 12 13 14 15 16 17 18 19 20 21 22 23 24 25 26 27 28 29 30 31 32 33 34 35 36 37 38 39 40 41 42 43 44 45 46 47 48 49 50
000
ASUS42 KRAH 220310
RWRRAH
NORTH CAROLINA WEATHER ROUNDUP
NATIONAL WEATHER SERVICE RALEIGH NC
1000 PM EST FRI NOV 21 2014

NOTE: "FAIR" INDICATES FEW OR NO CLOUDS BELOW 12,000 FEET WITH NO
SIGNIFICANT WEATHER AND/OR OBSTRUCTIONS TO VISIBILITY.

NCZ001-053-055-056-065-067-220400-
WESTERN NORTH CAROLINA

CITY           SKY/WX    TMP DP  RH WIND       PRES   REMARKS
ASHEVILLE      CLEAR     31  19  61 CALM      30.46R
JEFFERSON      CLEAR     30   3  30 CALM      30.43R
MORGANTON      CLEAR     28  19  70 CALM      30.53S
HICKORY        CLEAR     33  16  49 CALM      30.48R
RUTHERFORDTON  CLEAR     43  14  31 E5        30.49R
MOUNT AIRY     CLEAR     33  10  39 W3        30.50S
BOONE          CLEAR     24  12  62 CALM      30.44S
$$

NCZ021-022-025-041-071-084-088-220400-
CENTRAL NORTH CAROLINA

CITY           SKY/WX    TMP DP  RH WIND       PRES   REMARKS
CHARLOTTE      CLEAR     42   8  24 E8        30.49R
GREENSBORO     CLEAR     33  11  39 CALM      30.50R
WINSTON-SALEM  CLEAR     32  11  41 CALM      30.51R
RALEIGH-DURHAM CLEAR     31  13  47 CALM      30.53S
FORT BRAGG     CLEAR     35  14  41 CALM      30.53R
FAYETTEVILLE   CLEAR     34  13  41 NE5       30.53R WCI  30
BURLINGTON     CLEAR     25  14  63 CALM      30.52R
LAURINBURG     CLEAR     34  13  41 E5        30.54R WCI  30
$$

NCZ011-015-027-028-043-044-047-080-103-220400-
NORTHEASTERN NORTH CAROLINA

CITY           SKY/WX    TMP DP  RH WIND       PRES   REMARKS
ROCKY MT-WILSO CLEAR     26  19  74 CALM      30.55S
GREENVILLE     CLEAR     30  21  69 CALM      30.56R
WASHINGTON     CLEAR     29  16  56 CALM      30.56S
ELIZABETH CITY CLEAR     34  20  56 CALM      30.57S
MANTEO         CLEAR     38  24  55 N7        30.56R WCI  33
CAPE HATTERAS  CLEAR     40  26  57 N9        30.54S WCI  34
$$

NCZ078-087-090-091-093-098-101-220400-
SOUTHEASTERN NORTH CAROLINA

CITY           SKY/WX    TMP DP  RH WIND       PRES   REMARKS
LUMBERTON      CLEAR     39  13  34 E7        30.52R WCI  34
GOLDSBORO      CLEAR     33  17  52 CALM      30.54R
KINSTON        CLEAR     31  17  55 CALM      30.56S
KENANSVILLE    CLEAR     33  15  48 CALM      30.55S
NEW BERN       CLEAR     37  20  50 NE6       30.56S WCI  32
CHERRY POINT   CLEAR     36  24  62 NE8       30.56R WCI  30
BEAUFORT       CLEAR     36  24  62 NE7       30.54S WCI  30
JACKSONVILLE   CLEAR     36  18  48 NE8       30.54S WCI  30
WILMINGTON     CLEAR     36  17  46 NE9       30.53R WCI  29
$$



USA.gov is the U.S. government's official web portal to all federal, state and local government web resources and services.